Location: Unspecified
(0.0000°N, 0.0000°E)
Time: 17:43:54
(UTC+00:00)

COSMOS 2416 - Pass Details

Date: 17 May 2026
Orbit: 1436 x 1449 km, 82.5° (Epoch: 10 June)

Event Time Altitude Azimuth Distance (km) Brightness Sun altitude
Rises 04:58:39 0° 157° (SSE) 4,538 9.3 -13.6°
Reaches altitude 10° 05:02:15 10° 143° (SE) 3,560 8.9 -12.8°
Maximum altitude 05:08:43 24° 93° (E) 2,629 8.9 -11.2°
Drops below altitude 10° 05:15:09 10° 43° (NE) 3,557 9.8 -9.7°
Sets 05:18:41 0° 30° (NNE) 4,533 10.1 -8.9°
